Time,TemperatureF,DewpointF,PressureIn,WindDirection,WindDirectionDegrees,WindSpeedMPH,WindSpeedGustMPH,Humidity,HourlyPrecipIn,Conditions,Clouds,dailyrainin,SoftwareType,DateUTC
2013-05-24 01:00:00,48.0,43.0,29.87,West,260,17.0,-999.0,81,-99.99,,,-99.99,,2013-05-24 09:00:00,
2013-05-24 01:32:00,48.0,43.0,29.87,West,260,17.0,-999.0,81,-99.99,,,-99.99,,2013-05-24 09:32:00,
2013-05-24 01:42:00,48.0,43.0,29.87,West,260,17.0,-999.0,81,-99.99,,,-99.99,,2013-05-24 09:42:00,
2013-05-24 01:52:00,48.0,43.0,29.87,West,260,17.0,-999.0,81,-99.99,,,-99.99,,2013-05-24 09:52:00,
2013-05-24 02:00:00,46.0,-99.9,29.93,North,360,3.0,-999.0,-999,-99.99,,,-99.99,,2013-05-24 10:00:00,
2013-05-24 02:23:00,46.0,-99.9,29.93,North,360,3.0,-999.0,-999,-99.99,,,-99.99,,2013-05-24 10:23:00,
2013-05-24 02:33:00,46.0,-99.9,29.93,North,360,3.0,-999.0,-999,-99.99,,,-99.99,,2013-05-24 10:33:00,
2013-05-24 02:42:00,46.0,-99.9,29.93,North,360,3.0,-999.0,-999,-99.99,,,-99.99,,2013-05-24 10:42:00,
2013-05-24 02:53:00,46.0,-99.9,29.93,North,360,3.0,-999.0,-999,-99.99,,,-99.99,,2013-05-24 10:53:00,
2013-05-24 03:00:00,45.0,-99.9,29.93,North,360,5.0,-999.0,-999,-99.99,,,-99.99,,2013-05-24 11:00:00,
2013-05-24 03:23:00,45.0,-99.9,29.93,North,360,5.0,-999.0,-999,-99.99,,,-99.99,,2013-05-24 11:23:00,
2013-05-24 03:32:00,45.0,-99.9,29.93,North,360,5.0,-999.0,-999,-99.99,,,-99.99,,2013-05-24 11:32:00,
2013-05-24 03:42:00,45.0,-99.9,29.93,North,360,5.0,-999.0,-999,-99.99,,,-99.99,,2013-05-24 11:42:00,
2013-05-24 03:52:00,45.0,-99.9,29.93,North,360,5.0,-999.0,-999,-99.99,,,-99.99,,2013-05-24 11:52:00,
2013-05-24 04:00:00,43.0,-99.9,29.96,North,10,6.0,-999.0,-999,-99.99,,,-99.99,,2013-05-24 12:00:00,
2013-05-24 04:33:00,43.0,-99.9,29.96,North,10,6.0,-999.0,-999,-99.99,,,-99.99,,2013-05-24 12:33:00,
2013-05-24 04:42:00,43.0,-99.9,29.96,North,10,6.0,-999.0,-999,-99.99,,,-99.99,,2013-05-24 12:42:00,
2013-05-24 04:52:00,43.0,-99.9,29.96,North,10,6.0,-999.0,-999,-99.99,,,-99.99,,2013-05-24 12:52:00,
2013-05-24 05:00:00,44.0,-99.9,29.96,North,10,8.0,-999.0,-999,-99.99,,,-99.99,,2013-05-24 13:00:00,
2013-05-24 05:22:00,44.0,-99.9,29.96,North,10,8.0,-999.0,-999,-99.99,,,-99.99,,2013-05-24 13:22:00,
2013-05-24 05:32:00,44.0,-99.9,29.96,North,10,8.0,-999.0,-999,-99.99,,,-99.99,,2013-05-24 13:32:00,
2013-05-24 05:42:00,44.0,-99.9,29.96,North,10,8.0,-999.0,-999,-99.99,,,-99.99,,2013-05-24 13:42:00,
2013-05-24 05:52:00,44.0,-99.9,29.96,North,10,8.0,-999.0,-999,-99.99,,,-99.99,,2013-05-24 13:52:00,
2013-05-24 06:00:00,44.0,-99.9,29.96,North,10,9.0,-999.0,-999,-99.99,,,-99.99,,2013-05-24 14:00:00,
2013-05-24 06:22:00,44.0,-99.9,29.96,North,10,9.0,-999.0,-999,-99.99,,,-99.99,,2013-05-24 14:22:00,
2013-05-24 06:32:00,44.0,-99.9,29.96,North,10,9.0,-999.0,-999,-99.99,,,-99.99,,2013-05-24 14:32:00,
2013-05-24 06:42:00,44.0,-99.9,29.96,North,10,9.0,-999.0,-999,-99.99,,,-99.99,,2013-05-24 14:42:00,
2013-05-24 06:52:00,44.0,-99.9,29.96,North,10,9.0,-999.0,-999,-99.99,,,-99.99,,2013-05-24 14:52:00,
2013-05-24 07:00:00,44.0,-99.9,29.97,North,360,6.0,-999.0,-999,-99.99,,,-99.99,,2013-05-24 15:00:00,
2013-05-24 07:22:00,44.0,-99.9,29.97,North,360,6.0,-999.0,-999,-99.99,,,-99.99,,2013-05-24 15:22:00,
2013-05-24 07:33:00,44.0,-99.9,29.97,North,360,6.0,-999.0,-999,-99.99,,,-99.99,,2013-05-24 15:33:00,
2013-05-24 07:43:00,44.0,-99.9,29.97,North,360,6.0,-999.0,-999,-99.99,,,-99.99,,2013-05-24 15:43:00,
2013-05-24 07:53:00,44.0,-99.9,29.97,North,360,6.0,-999.0,-999,-99.99,,,-99.99,,2013-05-24 15:53:00,
2013-05-24 08:00:00,45.0,-99.9,29.97,North,360,2.0,-999.0,-999,-99.99,,,-99.99,,2013-05-24 16:00:00,
2013-05-24 08:22:00,45.0,-99.9,29.97,North,360,2.0,-999.0,-999,-99.99,,,-99.99,,2013-05-24 16:22:00,
2013-05-24 08:33:00,45.0,-99.9,29.97,North,360,2.0,-999.0,-999,-99.99,,,-99.99,,2013-05-24 16:33:00,
2013-05-24 08:42:00,45.0,-99.9,29.97,North,360,2.0,-999.0,-999,-99.99,,,-99.99,,2013-05-24 16:42:00,
2013-05-24 08:52:00,45.0,-99.9,29.97,North,360,2.0,-999.0,-999,-99.99,,,-99.99,,2013-05-24 16:52:00,
2013-05-24 09:00:00,45.0,-99.9,29.97,North,360,6.0,-999.0,-999,-99.99,,,-99.99,,2013-05-24 17:00:00,
2013-05-24 09:22:00,45.0,-99.9,29.97,North,360,6.0,-999.0,-999,-99.99,,,-99.99,,2013-05-24 17:22:00,
2013-05-24 09:32:00,45.0,-99.9,29.97,North,360,6.0,-999.0,-999,-99.99,,,-99.99,,2013-05-24 17:32:00,
2013-05-24 09:42:00,45.0,-99.9,29.97,North,360,6.0,-999.0,-999,-99.99,,,-99.99,,2013-05-24 17:42:00,
2013-05-24 09:52:00,45.0,-99.9,29.97,North,360,6.0,-999.0,-999,-99.99,,,-99.99,,2013-05-24 17:52:00,
2013-05-24 10:00:00,47.0,-99.9,29.96,North,360,5.0,-999.0,-999,-99.99,,,-99.99,,2013-05-24 18:00:00,
2013-05-24 10:22:00,47.0,-99.9,29.96,North,360,5.0,-999.0,-999,-99.99,,,-99.99,,2013-05-24 18:22:00,
2013-05-24 10:32:00,47.0,-99.9,29.96,North,360,5.0,-999.0,-999,-99.99,,,-99.99,,2013-05-24 18:32:00,
2013-05-24 10:42:00,47.0,-99.9,29.96,North,360,5.0,-999.0,-999,-99.99,,,-99.99,,2013-05-24 18:42:00,
2013-05-24 10:52:00,47.0,-99.9,29.96,North,360,5.0,-999.0,-999,-99.99,,,-99.99,,2013-05-24 18:52:00,
2013-05-24 11:00:00,50.0,-99.9,29.95,North,360,3.0,-999.0,-999,-99.99,,,-99.99,,2013-05-24 19:00:00,
2013-05-24 11:22:00,50.0,-99.9,29.95,North,360,3.0,-999.0,-999,-99.99,,,-99.99,,2013-05-24 19:22:00,
2013-05-24 11:32:00,50.0,-99.9,29.95,North,360,3.0,-999.0,-999,-99.99,,,-99.99,,2013-05-24 19:32:00,
2013-05-24 11:42:00,50.0,-99.9,29.95,North,360,3.0,-999.0,-999,-99.99,,,-99.99,,2013-05-24 19:42:00,
2013-05-24 11:52:00,50.0,-99.9,29.95,North,360,3.0,-999.0,-999,-99.99,,,-99.99,,2013-05-24 19:52:00,
2013-05-24 12:00:00,52.0,-99.9,29.94,North,360,1.0,-999.0,-999,-99.99,,,-99.99,,2013-05-24 20:00:00,
2013-05-24 12:22:00,52.0,-99.9,29.94,North,360,1.0,-999.0,-999,-99.99,,,-99.99,,2013-05-24 20:22:00,
2013-05-24 12:32:00,52.0,-99.9,29.94,North,360,1.0,-999.0,-999,-99.99,,,-99.99,,2013-05-24 20:32:00,
2013-05-24 12:42:00,52.0,-99.9,29.94,North,360,1.0,-999.0,-999,-99.99,,,-99.99,,2013-05-24 20:42:00,
2013-05-24 12:52:00,52.0,-99.9,29.94,North,360,1.0,-999.0,-999,-99.99,,,-99.99,,2013-05-24 20:52:00,
2013-05-24 13:00:00,51.0,-99.9,29.94,North,360,5.0,-999.0,-999,-99.99,,,-99.99,,2013-05-24 21:00:00,
2013-05-24 13:22:00,51.0,-99.9,29.94,North,360,5.0,-999.0,-999,-99.99,,,-99.99,,2013-05-24 21:22:00,
2013-05-24 13:33:00,51.0,-99.9,29.94,North,360,5.0,-999.0,-999,-99.99,,,-99.99,,2013-05-24 21:33:00,
2013-05-24 13:43:00,51.0,-99.9,29.94,North,360,5.0,-999.0,-999,-99.99,,,-99.99,,2013-05-24 21:43:00,
2013-05-24 13:53:00,51.0,-99.9,29.94,North,360,5.0,-999.0,-999,-99.99,,,-99.99,,2013-05-24 21:53:00,
2013-05-24 14:00:00,51.0,-99.9,29.95,North,360,6.0,-999.0,-999,-99.99,,,-99.99,,2013-05-24 22:00:00,
2013-05-24 14:22:00,51.0,-99.9,29.95,North,360,6.0,-999.0,-999,-99.99,,,-99.99,,2013-05-24 22:22:00,
2013-05-24 14:33:00,51.0,-99.9,29.95,North,360,6.0,-999.0,-999,-99.99,,,-99.99,,2013-05-24 22:33:00,
2013-05-24 14:42:00,51.0,-99.9,29.95,North,360,6.0,-999.0,-999,-99.99,,,-99.99,,2013-05-24 22:42:00,
2013-05-24 14:52:00,51.0,-99.9,29.95,North,360,6.0,-999.0,-999,-99.99,,,-99.99,,2013-05-24 22:52:00,
2013-05-24 15:00:00,52.0,-99.9,29.96,North,10,6.0,-999.0,-999,-99.99,,,-99.99,,2013-05-24 23:00:00,
2013-05-24 15:22:00,52.0,-99.9,29.96,North,10,6.0,-999.0,-999,-99.99,,,-99.99,,2013-05-24 23:22:00,
2013-05-24 15:32:00,52.0,-99.9,29.96,North,10,6.0,-999.0,-999,-99.99,,,-99.99,,2013-05-24 23:32:00,
2013-05-24 15:42:00,52.0,-99.9,29.96,North,10,6.0,-999.0,-999,-99.99,,,-99.99,,2013-05-24 23:42:00,
2013-05-24 15:52:00,52.0,-99.9,29.96,North,10,6.0,-999.0,-999,-99.99,,,-99.99,,2013-05-24 23:52:00,
2013-05-24 16:00:00,53.0,-99.9,29.97,North,360,5.0,-999.0,-999,-99.99,,,-99.99,,2013-05-25 00:00:00,
2013-05-24 16:22:00,53.0,-99.9,29.97,North,360,5.0,-999.0,-999,-99.99,,,-99.99,,2013-05-25 00:22:00,
2013-05-24 16:32:00,53.0,-99.9,29.97,North,360,5.0,-999.0,-999,-99.99,,,-99.99,,2013-05-25 00:32:00,
2013-05-24 16:42:00,53.0,-99.9,29.97,North,360,5.0,-999.0,-999,-99.99,,,-99.99,,2013-05-25 00:42:00,
2013-05-24 16:52:00,53.0,-99.9,29.97,North,360,5.0,-999.0,-999,-99.99,,,-99.99,,2013-05-25 00:52:00,
2013-05-24 17:00:00,53.0,-99.9,29.98,North,10,7.0,-999.0,-999,-99.99,,,-99.99,,2013-05-25 01:00:00,
2013-05-24 17:22:00,53.0,-99.9,29.98,North,10,7.0,-999.0,-999,-99.99,,,-99.99,,2013-05-25 01:22:00,
2013-05-24 17:33:00,53.0,-99.9,29.98,North,10,7.0,-999.0,-999,-99.99,,,-99.99,,2013-05-25 01:33:00,
2013-05-24 17:42:00,53.0,-99.9,29.98,North,10,7.0,-999.0,-999,-99.99,,,-99.99,,2013-05-25 01:42:00,
2013-05-24 17:52:00,53.0,-99.9,29.98,North,10,7.0,-999.0,-999,-99.99,,,-99.99,,2013-05-25 01:52:00,
2013-05-24 18:00:00,57.0,-99.9,29.98,North,360,5.0,-999.0,-999,-99.99,,,-99.99,,2013-05-25 02:00:00,
2013-05-24 18:22:00,57.0,-99.9,29.98,North,360,5.0,-999.0,-999,-99.99,,,-99.99,,2013-05-25 02:22:00,
2013-05-24 18:32:00,57.0,-99.9,29.98,North,360,5.0,-999.0,-999,-99.99,,,-99.99,,2013-05-25 02:32:00,
2013-05-24 18:42:00,57.0,-99.9,29.98,North,360,5.0,-999.0,-999,-99.99,,,-99.99,,2013-05-25 02:42:00,
2013-05-24 18:52:00,57.0,-99.9,29.98,North,360,5.0,-999.0,-999,-99.99,,,-99.99,,2013-05-25 02:52:00,
2013-05-24 19:00:00,56.0,-99.9,29.98,North,360,5.0,-999.0,-999,-99.99,,,-99.99,,2013-05-25 03:00:00,
2013-05-24 19:22:00,56.0,-99.9,29.98,North,360,5.0,-999.0,-999,-99.99,,,-99.99,,2013-05-25 03:22:00,
2013-05-24 19:33:00,56.0,-99.9,29.98,North,360,5.0,-999.0,-999,-99.99,,,-99.99,,2013-05-25 03:33:00,
2013-05-24 19:43:00,56.0,-99.9,29.98,North,360,5.0,-999.0,-999,-99.99,,,-99.99,,2013-05-25 03:43:00,
2013-05-24 19:53:00,56.0,-99.9,29.98,North,360,5.0,-999.0,-999,-99.99,,,-99.99,,2013-05-25 03:53:00,
2013-05-24 20:00:00,51.0,-99.9,29.99,North,10,9.0,-999.0,-999,-99.99,,,-99.99,,2013-05-25 04:00:00,
2013-05-24 20:23:00,51.0,-99.9,29.99,North,10,9.0,-999.0,-999,-99.99,,,-99.99,,2013-05-25 04:23:00,
2013-05-24 20:33:00,51.0,-99.9,29.99,North,10,9.0,-999.0,-999,-99.99,,,-99.99,,2013-05-25 04:33:00,
2013-05-24 20:43:00,51.0,-99.9,29.99,North,10,9.0,-999.0,-999,-99.99,,,-99.99,,2013-05-25 04:43:00,
2013-05-24 20:53:00,51.0,-99.9,29.99,North,10,9.0,-999.0,-999,-99.99,,,-99.99,,2013-05-25 04:53:00,
2013-05-24 21:00:00,46.0,-99.9,30.00,NNE,20,16.0,-999.0,-999,-99.99,,,-99.99,,2013-05-25 05:00:00,
2013-05-24 21:22:00,46.0,-99.9,30.00,NNE,20,16.0,-999.0,-999,-99.99,,,-99.99,,2013-05-25 05:22:00,
2013-05-24 21:32:00,46.0,-99.9,30.00,NNE,20,16.0,-999.0,-999,-99.99,,,-99.99,,2013-05-25 05:32:00,
2013-05-24 21:43:00,46.0,-99.9,30.00,NNE,20,16.0,-999.0,-999,-99.99,,,-99.99,,2013-05-25 05:43:00,
2013-05-24 21:52:00,46.0,-99.9,30.00,NNE,20,16.0,-999.0,-999,-99.99,,,-99.99,,2013-05-25 05:52:00,
2013-05-24 22:00:00,45.0,44.0,30.01,SE,140,15.0,-999.0,93,-99.99,,,-99.99,,2013-05-25 06:00:00,
2013-05-24 22:21:00,45.0,44.0,30.01,SE,140,15.0,-999.0,93,-99.99,,,-99.99,,2013-05-25 06:21:00,
2013-05-24 22:32:00,45.0,44.0,30.01,SE,140,15.0,-999.0,93,-99.99,,,-99.99,,2013-05-25 06:32:00,
2013-05-24 22:41:00,45.0,44.0,30.01,SE,140,15.0,-999.0,93,-99.99,,,-99.99,,2013-05-25 06:41:00,
2013-05-24 22:51:00,45.0,44.0,30.01,SE,140,15.0,-999.0,93,-99.99,,,-99.99,,2013-05-25 06:51:00,
2013-05-24 23:00:00,45.0,-99.9,30.01,North,10,10.0,-999.0,-999,-99.99,,,-99.99,,2013-05-25 07:00:00,
2013-05-24 23:22:00,45.0,-99.9,30.01,North,10,10.0,-999.0,-999,-99.99,,,-99.99,,2013-05-25 07:22:00,
2013-05-24 23:32:00,45.0,-99.9,30.01,North,10,10.0,-999.0,-999,-99.99,,,-99.99,,2013-05-25 07:32:00,
2013-05-24 23:42:00,45.0,-99.9,30.01,North,10,10.0,-999.0,-999,-99.99,,,-99.99,,2013-05-25 07:42:00,
2013-05-24 23:52:00,45.0,-99.9,30.01,North,10,10.0,-999.0,-999,-99.99,,,-99.99,,2013-05-25 07:52:00,